Regional Weather Roundup
Issued by NWS Goodland, KS

Home | Current Version | Previous Version | Text Only | Print | Product List | Glossary Off
Versions: 1 2 3 4 5 6 7 8 9 10 11 12 13 14 15 16 17 18 19 20 21 22 23 24 25 26 27 28 29 30 31 32 33 34 35 36 37 38 39 40 41 42 43 44 45 46 47 48 49 50

709
ASUS43 KGLD 281359
RWRGLD

GOODLAND FORECAST AREA HOURLY WEATHER ROUNDUP
NATIONAL WEATHER SERVICE GOODLAND KS
800 AM MDT THU APR 28 2016

...OFFICIAL OBSERVATIONS...

CITY           SKY/WX    TMP DP  RH WIND       PRES   REMARKS
GOODLAND KS    FAIR      39  29  67 N14       30.00R
HILL CITY KS   FAIR      42  32  67 NW17      30.00R
IMPERIAL NEB   CLOUDY    35  30  82 N15       30.00S
MCCOOK NEB     FAIR      40  32  73 NW13      30.01R
AKRON CO       CLOUDY    33  29  85 N7        29.99R
BURLINGTON CO  CLOUDY    38  30  73 N10       29.99R
LIMON CO       CLOUDY    35  27  72 N5        29.98R
$$

...UNOFFICIAL OBSERVATIONS...

CITY           SKY/WX    TMP DP  RH WIND       PRES   REMARKS
LENORA KS        N/A     39  32  76 MISG        N/A
$$




USA.gov is the U.S. government's official web portal to all federal, state and local government web resources and services.